Location: Phoenix
(33.4480°N, 112.0730°W)
Time: 19:10:21
(UTC-07:00)

ISS - All Passes

Search period start: 23 July 2014 00:00
Search period end: 02 August 2014 00:00
Orbit: 411 x 419 km, 51.6° (Epoch: 23 July)

Date Brightness Start Highest point End Pass type
(mag) Time Alt. Az. Time Alt. Az. Time Alt. Az.
23 Jul - 00:39:30 10° SSW 00:42:38 39° SE 00:45:47 10° ENE night (unlit)
23 Jul - 02:17:01 10° W 02:19:27 18° NNW 02:21:54 10° NNE visible
23 Jul - 07:12:56 10° N 07:14:02 11° NNE 07:15:08 10° NE daylight
23 Jul - 08:47:50 10° NW 08:51:12 86° NE 08:54:32 10° SE daylight
23 Jul - 23:51:27 10° S 23:53:57 20° SE 23:56:28 10° E night (unlit)
24 Jul - 01:27:31 10° W 01:30:31 30° NW 01:33:31 10° NNE visible
24 Jul - 07:59:09 10° NNW 08:02:23 43° NE 08:05:35 10° ESE daylight
24 Jul - 09:37:04 10° W 09:38:47 13° SW 09:40:30 10° SSW daylight
24 Jul - 23:04:55 10° SE 23:05:20 10° SE 23:05:45 10° ESE night (unlit)
25 Jul - 00:38:22 10° WSW 00:41:39 56° NW 00:44:57 10° NE visible
25 Jul - 07:10:39 10° NNW 07:13:29 24° NE 07:16:17 10° E daylight
25 Jul - 08:47:18 10° WNW 08:50:08 26° SW 08:52:58 10° S daylight
25 Jul - 23:49:32 10° SW 23:52:51 72° SE 23:56:11 10° NE night (unlit)
26 Jul - 01:28:13 10° WNW 01:29:54 13° NNW 01:31:34 10° N visible
26 Jul - 06:22:23 10° N 06:24:30 16° NNE 06:26:37 10° ENE daylight
26 Jul - 07:58:10 10° NW 08:01:26 52° SW 08:04:41 10° SSE daylight
26 Jul - 23:01:04 10° SSW 23:04:07 34° SE 23:07:10 10° ENE night (unlit)
27 Jul - 00:38:19 10° W 00:40:53 20° NW 00:43:27 10° NNE visible
27 Jul - 05:34:49 10° NNE 05:35:27 10° NNE 05:36:04 10° NE daylight
27 Jul - 07:09:18 10° NW 07:12:40 75° NE 07:16:00 10° SE daylight
27 Jul - 22:13:09 10° S 22:15:26 18° SE 22:17:45 10° E night (unlit)
27 Jul - 23:48:53 10° WSW 23:51:57 33° NW 23:55:02 10° NNE night (unlit)
28 Jul - 06:20:39 10° NNW 06:23:49 38° NE 06:26:58 10° ESE daylight
28 Jul - 07:58:13 10° W 08:00:16 15° SW 08:02:18 10° SSW daylight
28 Jul - 22:59:47 10° SW 23:03:05 64° NW 23:06:25 10° NE night (unlit)
29 Jul - 05:32:10 10° NNW 05:34:53 22° NE 05:37:36 10° E daylight
29 Jul - 07:08:38 10° WNW 07:11:36 29° SW 07:14:33 10° SSE daylight
29 Jul - 22:11:01 10° SW 22:14:17 61° SE 22:17:36 10° NE night (unlit)
29 Jul - 23:49:24 10° WNW 23:51:17 14° NNW 23:53:11 10° N night (unlit)
30 Jul - 04:43:57 10° N 04:45:53 14° NNE 04:47:49 10° ENE visible
30 Jul - 06:19:34 10° NW 06:22:53 61° SW 06:26:10 10° SE daylight
30 Jul - 21:22:38 10° SSW 21:25:34 29° SE 21:28:31 10° ENE night (unlit)
30 Jul - 22:59:36 10° W 23:02:17 22° NW 23:04:58 10° NNE night (unlit)
31 Jul - 05:30:44 10° NW 05:34:05 65° NE 05:37:24 10° SE daylight
31 Jul - 20:34:52 10° SSE 20:36:54 15° SE 20:38:56 10° E visible
31 Jul - 22:10:14 10° WSW 22:13:21 37° NW 22:16:29 10° NNE night (unlit)
01 Aug - 04:42:06 10° NNW 04:45:12 34° NE 04:48:18 10° ESE visible
01 Aug - 06:19:25 10° W 06:21:43 17° SW 06:24:00 10° S daylight
01 Aug - 21:21:11 10° SW 21:24:29 74° NW 21:27:50 10° NE visible
01 Aug - 23:01:15 10° NW 23:01:42 10° NNW 23:02:10 10° NNW night (unlit)
